Weather History for Santa Fe, NM

Change the Weather History Date:

Tuesday, March 12, 2013

  Actual Average Record
Temperature  
Mean Temperature 45 °F -  
Max Temperature 60 °F 0 °F 70 °F (2005)
Min Temperature 30 °F - 19 °F (1998)
Degree Days  
Heating Degree Days 20    
Moisture  
Dew Point 21 °F    
Average Humidity 43    
Maximum Humidity 69    
Minimum Humidity 20    
Precipitation  
Precipitation 0.00 in - - ()
Sea Level Pressure  
Sea Level Pressure 30.10 in    
Wind  
Wind Speed 6 mph (South)    
Max Wind Speed 15 mph    
Max Gust Speed 20 mph    
Visibility 10 miles    
Events      
Averages and records for this station are not official NWS values.
T = Trace of Precipitation, MM = Missing Value Source: NWS Daily Summary

Daily Weather History Graph

Daily Weather History Graph

Search for Another Location

Airport:

Trip Planner

Search our weather history database for the weather conditions in past years. The results will help you decide how hot, cold, wet, or windy it might be!

Date:

Astronomy

Mar. 12, 2013 Rise Set
Actual Time 7:18 AM MDT 7:09 PM MDT
Civil Twilight 6:53 AM MDT 7:35 PM MDT
Nautical Twilight 6:23 AM MDT 8:04 PM MDT
Astronomical Twilight 5:54 AM MDT 8:34 PM MDT
Moon 7:30 AM MDT (3/12) 8:23 PM MDT (3/12)
Length of Visible Light 12h 41m
Length of Day
11h 50m
New Moon, 1% of the Moon is Illuminated
Mar 12
New Moon
Mar 19
First Quarter
Mar 27
Full
Apr 2
Last Quarter
Apr 10
New

Hourly Weather History & Observations

Time (MDT) Temp. Windchill Dew Point Humidity Pressure Visibility Wind Dir Wind Speed Gust Speed Precip Events Conditions
12:53 AM 37.0 °F 33.3 °F 19.0 °F 48% 30.00 in 10.0 mi NNW 4.6 mph - N/A   Clear
1:53 AM 36.0 °F 32.1 °F 21.0 °F 55% 30.00 in 10.0 mi NNW 4.6 mph - N/A   Clear
2:53 AM 35.1 °F 28.6 °F 21.9 °F 59% 29.99 in 10.0 mi North 8.1 mph - N/A   Clear
3:53 AM 33.1 °F 26.1 °F 21.0 °F 61% 29.99 in 10.0 mi North 8.1 mph - N/A   Clear
4:53 AM 30.0 °F 21.7 °F 21.0 °F 69% 30.01 in 10.0 mi NNE 9.2 mph - N/A   Clear
5:53 AM 32.0 °F - 21.0 °F 64% 30.04 in 10.0 mi Calm Calm - N/A   Clear
6:53 AM 30.0 °F 23.2 °F 19.9 °F 66% 30.08 in 10.0 mi WSW 6.9 mph - N/A   Clear
7:53 AM 30.0 °F 26.5 °F 21.0 °F 69% 30.15 in 10.0 mi NNW 3.5 mph - N/A   Clear
8:53 AM 39.0 °F - 23.0 °F 53% 30.15 in 10.0 mi Calm Calm - N/A   Clear
9:53 AM 42.1 °F 38.4 °F 21.9 °F 45% 30.16 in 10.0 mi South 5.8 mph - N/A   Clear
10:53 AM 46.0 °F - 21.9 °F 39% 30.17 in 10.0 mi Calm Calm - N/A   Clear
11:53 AM 51.1 °F - 21.0 °F 31% 30.15 in 10.0 mi Calm Calm - N/A   Clear
12:53 PM 54.0 °F - 19.0 °F 25% 30.12 in 10.0 mi Variable 6.9 mph - N/A   Clear
1:53 PM 55.9 °F - 18.0 °F 23% 30.11 in 10.0 mi South 8.1 mph - N/A   Clear
2:53 PM 57.0 °F - 19.0 °F 23% 30.08 in 10.0 mi Variable 5.8 mph - N/A   Clear
3:53 PM 59.0 °F - 19.0 °F 21% 30.06 in 10.0 mi Variable 5.8 mph 17.3 mph N/A   Clear
4:53 PM 60.1 °F - 18.0 °F 20% 30.06 in 10.0 mi SSW 10.4 mph 19.6 mph N/A   Clear
5:53 PM 59.0 °F - 19.0 °F 21% 30.05 in 10.0 mi SSW 11.5 mph - N/A   Clear
6:53 PM 57.0 °F - 19.0 °F 23% 30.09 in 10.0 mi SW 10.4 mph - N/A   Clear
7:53 PM 51.1 °F - 19.0 °F 28% 30.15 in 10.0 mi SE 8.1 mph - N/A   Clear
8:53 PM 48.0 °F - 23.0 °F 37% 30.15 in 10.0 mi SE 9.2 mph - N/A   Clear
9:53 PM 45.0 °F 38.2 °F 24.1 °F 44% 30.18 in 10.0 mi SE 15.0 mph - N/A   Clear
10:53 PM 44.1 °F 37.4 °F 24.1 °F 45% 30.19 in 10.0 mi SE 13.8 mph - N/A   Clear
11:53 PM 41.0 °F 35.8 °F 24.1 °F 51% 30.20 in 10.0 mi ESE 8.1 mph - N/A   Clear